Regional Weather Roundup
Issued by NWS

Home | Current Version | Previous Version | Text Only | Print | Product List | Glossary On
Versions: 1 2 3 4 5 6 7 8 9 10 11 12 13 14 15 16 17 18 19 20 21 22 23 24 25 26 27 28 29 30 31 32 33 34 35 36 37 38 39 40 41 42 43 44 45 46 47 48 49 50
000
ASUS43 KDTX 221510
RWRMI
MICHIGAN HOURLY REGIONAL WEATHER ROUNDUP
NATIONAL WEATHER SERVICE DETROIT/PONTIAC MI
1000 AM EST MON DEC 22 2014

NOTE: "FAIR" INDICATES FEW OR NO CLOUDS BELOW 12,000 FEET WITH NO
SIGNIFICANT WEATHER AND/OR OBSTRUCTION TO VISIBILITY.

MIZ047>049-052>055-059>063-066>070-074>076-081>083-221600-
SOUTHEAST LOWER MICHIGAN

CITY           SKY/WX    TMP DP  RH WIND       PRES   REMARKS
ADRIAN         SUNNY     29  26  89 SE8       30.07S FOG     WCI  21
ALMA           SUNNY     29  26  91 SE3       30.08S FOG
ANN ARBOR      SUNNY     31  27  85 E8        30.07F FOG     WCI  23
BAD AXE        MOSUNNY   31  26  81 SE8       30.12S WCI  24
CARO           MOSUNNY   30  24  81 SE6       30.09F WCI  24
DETROIT CITY   SUNNY     35  28  75 E8        30.09F WCI  29
DETROIT        MOSUNNY   31  27  85 E6        30.10S FOG     WCI  25
FLINT          SUNNY     33  25  72 SE10      30.09S WCI  25
GROSSE ILE     SUNNY     32  28  86 E5        30.08S WCI  27
HILLSDALE      SUNNY     30  26  85 E8        30.02S FOG     WCI  22
HOWELL         SUNNY     30  27  88 E9        30.05F FOG     WCI  22

CITY           SKY/WX    TMP DP  RH WIND       PRES   REMARKS
JACKSON        SUNNY     30  26  85 SE12      30.04S FOG     WCI  20
LAMBERTVILLE   SUNNY     32  27  80 E5        30.08R WCI  27
LANSING        SUNNY     30  25  81 SE12      30.05F HAZE    WCI  20
LAPEER         FAIR      30  26  82 SE8       30.09F WCI  23
MASON          SUNNY     30  25  84 SE7       30.04F FOG     WCI  23
MONROE         SUNNY     34  30  86 SE7       30.07R WCI  28
MT. CLEMENS    MOSUNNY   33  31  92 E7        30.08F WCI  27
PONTIAC        MOSUNNY   31  26  82 E7        30.06F WCI  24
PORT HOPE        N/A     33  26  75 SE7       30.11F WCI  27
PORT HURON     SUNNY     32  28  86 E6        30.12R WCI  26
TRI CITIES     SUNNY     30  24  78 SE9       30.10S WCI  22
TROY           SUNNY     32  27  81 E3        30.10F
SAGINAW HB     MOSUNNY   30  28  93 SE6       30.09S WCI  24
$$
MIZ043>046-050>051-056>058-064>065-071>073-077>080-221600-
SOUTHWEST LOWER MICHIGAN

CITY           SKY/WX    TMP DP  RH WIND       PRES   REMARKS
BATTLE CREEK   MOSUNNY   30  23  75 SE7       30.01F HAZE    WCI  23
BENTON HARBOR  CLOUDY    30  25  81 E13       29.95F HAZE    WCI  20
BIG RAPIDS     SUNNY     29  27  90 SE8       30.03S FOG     WCI  21
COLDWATER      CLOUDY    29  24  82 MISG      30.01S HAZE
FREMONT        FAIR      31  24  74 SE9       30.00F WCI  23
HOLLAND        CLOUDY    32  25  75 E10       30.00R WCI  24
GRAND RAPIDS   MOSUNNY   30  24  78 SE9       30.02F HAZE    WCI  22
IONIA          FAIR      30  27  86 SE9       30.03F FOG     WCI  22
KALAMAZOO      CLOUDY    30  24  78 SE6       30.01R HAZE    WCI  24
LUDINGTON      MOSUNNY   33  26  76 SE8       29.99F HAZE    WCI  26
MARSHALL       SUNNY     29  24  82 E7        30.02S HAZE    WCI  22
MOUNT PLEASANT MOSUNNY   28  26  91 E5        30.07S FOG     WCI  22
MUSKEGON       MOSUNNY   32  24  72 E13       30.00F WCI  22
SOUTH HAVEN    CLOUDY    31  26  80 SE8       29.98F HAZE    WCI  24
$$
MIZ016>042-221600-
NORTHERN LOWER MICHIGAN

CITY           SKY/WX    TMP DP  RH WIND       PRES   REMARKS
ALPENA         CLOUDY    31  25  78 S7        30.11S WCI  24
BEAVER ISLAND  CLOUDY    32  27  81 SE6       30.03R WCI  27
BELLAIRE       CLOUDY    31  25  77 SE5       30.05S WCI  26
CADILLAC       MOSUNNY   26  23  87 SE9       30.01S FOG     WCI  17
CHARLEVOIX     CLOUDY    31  26  80 SE9       30.06S HAZE    WCI  23
FRANKFORT      CLOUDY    32  26  77 SE6       30.00F WCI  26
GAYLORD        CLOUDY    26  23  88 SE16      30.03S FOG     WCI  14
GRAYLING       PTSUNNY   28  26  89 SE9       30.06S FOG     WCI  19
HARBOR SPRINGS CLOUDY    31  25  78 E5        30.05S WCI  26
HOUGHTON LAKE  PTSUNNY   27  23  85 SE9       30.06S FOG     WCI  18
MANISTEE       MOSUNNY   32  21  64 SE8       30.01S WCI  25
OSCODA         CLOUDY    31  26  81 S5        30.11S WCI  27
PELLSTON       CLOUDY    30  25  81 SE14      30.06S WCI  19
ROGERS CITY    PTSUNNY   31  27  87 S10G16    30.10S WCI  22
TRAVERSE CITY  CLOUDY    31  24  75 VRB5      30.02S WCI  26
$$
MIZ007>008-015-221600-
EASTERN UPPER MICHIGAN

CITY           SKY/WX    TMP DP  RH WIND       PRES   REMARKS
KINROSS        CLOUDY    30  28  93 SE10      30.06R WCI  21
MACKINAC ISLAN CLOUDY    31  26  81 SE9G17    30.05S WCI  23
NEWBERRY       CLOUDY    29  28  93 SE12      30.00S FOG     WCI  20
S. S. MARIE    CLOUDY    32  28  85 SE13      30.04F FOG     WCI  22
MUNISING         N/A     36  32  85 S9        29.96R WCI  29
$$
MIZ004>006-011>014-085-221600-
CENTRAL UPPER MICHIGAN

CITY           SKY/WX    TMP DP  RH WIND       PRES   REMARKS
MANISTIQUE     CLOUDY    34  32  92 SE13      29.99S FOG     WCI  25
ESCANABA       CLOUDY    36  30  80 S12G18    29.95S WCI  27
MENOMINEE      CLOUDY    36  34  93 S13       29.93S WCI  27
SAWYER-GWINN   CLOUDY    32  32 100 S13       29.90S FOG     WCI  22
$$
MIZ001>003-009>011-084-221600-
WESTERN UPPER MICHIGAN

CITY           SKY/WX    TMP DP  RH WIND       PRES   REMARKS
IRON MOUNTAIN  CLOUDY    34  30  85 SE10      29.87F FOG     WCI  26
HOUGHTON       LGT SNOW  32  31  96 SE7       29.84R VSB 1   WCI  26
COPPER HARBOR    N/A     36  33  89 SW8G17    29.86R WCI  30
IRONWOOD       CLOUDY    34  32  93 SE9       29.74F WCI  26
$$

ABBREVIATIONS USED IN REMARKS
   TC - TEMPERATURE IN CELSIUS
  WCI - WIND CHILL INDEX
   HX - HEAT INDEX
  VSB - VISIBILITY



USA.gov is the U.S. government's official web portal to all federal, state and local government web resources and services.